Вернуться в каталог

SITRO-AIS-21

АктивенСвязьSSO
NORAD 61739·PAYLOAD·🇷🇺 Russia
Это название спутника еще не подтверждено официальными источниками.

Запущен Nov 4, 2024 с Vostochny Cosmodrome

Loading…

Ближайшие Пролёты (ближайшие 24 часа)

TLE

СвежийSource: Space-Track

Эпоха: Sep 14, 2026, 14:38 UTC

1 61739U 24199E   26257.60986674  .00002088  00000-0  19312-3 0  9996
2 61739  97.3222  89.5349 0013812 118.3235 241.9382 14.95465763145110

Отслеживайте SITRO-AIS-21 в реальном времени с AllMySat

Download on the App Store